User: anonymous   Login
Location: Stamford Observatory
(41.1241°N, 73.5498°W)
Time: 19:31:08
(UTC-05:00)
Language:

IRS-P3 - Orbit

View from above orbital plane
View from above orbital plane
View from above satellite
View from above satellite

Ground track
Ground track

The orbit data is extracted from the following two-line orbital elements,

1 23827U 96017A   14352.81364748  .00000295  00000-0  15228-3 0  1787
2 23827 098.6428 288.0807 0004115 141.3316 271.7146 14.22284859972858
Epoch (UTC): 18 December 2014 19:31:39
Eccentricity: 0.0004115
inclination: 98.6428°
perigee height: 814 km
apogee height: 820 km
right ascension of ascending node: 288.0807°
argument of perigee: 141.3316°
revolutions per day: 14.22284859
mean anomaly at epoch: 271.7146°
orbit number at epoch: 97285

The dashed part of the orbit path shows where the satellite is in the earth's shadow,  

DLR